Weather History for Lakehurst NAS, NJ

Change the Weather History Date:

Friday, May 30, 2014

  Actual Average Record
Temperature  
Mean Temperature 63 °F -  
Max Temperature 57 °F 70 °F 86 °F (2006)
Min Temperature 53 °F 55 °F 51 °F (2000)
Degree Days  
Heating Degree Days 2    
Growing Degree Days 13 (Base 50)    
Moisture  
Dew Point 51 °F    
Average Humidity 64    
Maximum Humidity 86    
Minimum Humidity 44    
Precipitation  
Precipitation 0.01 in - - ()
Sea Level Pressure  
Sea Level Pressure 30.07 in    
Wind  
Wind Speed 4 mph (NW)    
Max Wind Speed 14 mph    
Max Gust Speed 17 mph    
Visibility 10 miles    
Events Rain    
Averages and records for this station are not official NWS values.
T = Trace of Precipitation, MM = Missing Value Source: NWS Daily Summary

Daily Weather History Graph

Daily Weather History Graph

Search for Another Location

Airport:

Trip Planner

Search our weather history database for the weather conditions in past years. The results will help you decide how hot, cold, wet, or windy it might be!

Date:

Astronomy

May. 30, 2014 Rise Set
Actual Time 5:31 AM EDT 8:18 PM EDT
Civil Twilight 4:59 AM EDT 8:50 PM EDT
Nautical Twilight 4:19 AM EDT 9:31 PM EDT
Astronomical Twilight 3:33 AM EDT 10:17 PM EDT
Moon 7:13 AM EDT (5/30) 9:53 PM EDT (5/30)
Length of Visible Light 15h 51m
Length of Day
14h 47m
Waxing Crescent, 4% of the Moon is Illuminated
May 30
Waxing Crescent
Jun 5
First Quarter
Jun 13
Full
Jun 19
Last Quarter
Jun 27
New

Hourly Weather History & Observations

Time (EDT) Temp. Dew Point Humidity Pressure Visibility Wind Dir Wind Speed Gust Speed Precip Events Conditions
2:00 AM 53.1 °F 48.9 °F 86% 30.14 in 10.0 mi North 3.5 mph - N/A   Overcast
3:00 AM 53.1 °F 48.9 °F 86% 30.11 in 10.0 mi West 3.5 mph - N/A   Overcast
4:00 AM 53.1 °F 48.9 °F 86% 30.11 in 10.0 mi Calm Calm - N/A   Overcast
5:00 AM 53.1 °F 48.9 °F 86% 30.11 in 10.0 mi Calm Calm - N/A   Overcast
6:00 AM 53.1 °F 48.9 °F 86% 30.10 in 10.0 mi Calm Calm - N/A   Overcast
7:00 AM 54.0 °F 48.9 °F 83% 30.10 in 10.0 mi Calm Calm - N/A   Overcast
8:00 AM 57.9 °F 50.0 °F 75% 30.11 in 10.0 mi Variable 3.5 mph - N/A   Partly Cloudy
9:00 AM 62.6 °F 51.8 °F 68% 30.12 in 10.0 mi NNW 4.6 mph - N/A   Mostly Cloudy
9:06 AM 62.1 °F 51.1 °F 67% 30.11 in 10.0 mi Variable 5.8 mph - N/A   Mostly Cloudy
9:23 AM 62.6 °F 50.0 °F 63% 30.11 in 10.0 mi Variable 3.5 mph - N/A   Scattered Clouds
9:46 AM 64.4 °F 51.8 °F 64% 30.10 in 10.0 mi Variable 3.5 mph - N/A   Mostly Cloudy
10:00 AM 64.9 °F 51.1 °F 61% 30.10 in 10.0 mi Variable 4.6 mph - N/A   Mostly Cloudy
10:23 AM 66.2 °F 50.0 °F 56% 30.10 in 10.0 mi NE 5.8 mph - N/A   Scattered Clouds
11:00 AM 66.9 °F 50.0 °F 54% 30.09 in 10.0 mi NW 5.8 mph - N/A   Partly Cloudy
12:00 PM 69.1 °F 50.0 °F 51% 30.08 in 10.0 mi Variable 3.5 mph - N/A   Mostly Cloudy
1:00 PM 70.0 °F 50.0 °F 49% 30.07 in 10.0 mi North 4.6 mph - N/A   Mostly Cloudy
2:00 PM 72.0 °F 50.0 °F 46% 30.06 in 10.0 mi North 4.6 mph - N/A   Mostly Cloudy
3:00 PM 73.0 °F 50.0 °F 44% 30.05 in 10.0 mi North 3.5 mph - N/A   Scattered Clouds
4:00 PM 73.9 °F 51.1 °F 45% 30.03 in 10.0 mi West 9.2 mph - N/A   Mostly Cloudy
5:00 PM 73.0 °F 53.1 °F 49% 30.02 in 10.0 mi SE 12.7 mph 17.3 mph N/A   Overcast
6:00 PM 73.9 °F 51.1 °F 45% 30.00 in 10.0 mi WSW 13.8 mph 17.3 mph N/A   Scattered Clouds
7:00 PM 72.0 °F 52.0 °F 49% 30.00 in 10.0 mi WSW 10.4 mph - N/A   Clear
8:00 PM 68.0 °F 54.0 °F 61% 29.99 in 10.0 mi SW 4.6 mph - N/A   Clear
9:00 PM 64.0 °F 55.0 °F 73% 29.99 in 10.0 mi WSW 5.8 mph - N/A   Scattered Clouds
10:00 PM 64.9 °F 57.0 °F 75% 30.03 in 9.0 mi Variable 3.5 mph - 0.01 in Rain Light Rain
11:00 PM 64.9 °F 54.0 °F 68% 30.06 in 10.0 mi NNW 3.5 mph - 0.00 in   Mostly Cloudy